Home   Weather   Jørpeland   Past weeks
Flag for Norway

Past Weather in Jørpeland, Norway — Yesterday and Last 2 Weeks

Now
48 °F

Partly cloudy.


Feels Like: 40 °F
Forecast: 48 / 42 °F
Wind: 24 mph from Northwest

Location: Stavanger / Sola

Current Time: Sep 17, 2019 at 6:35:22 am

Latest Report: Sep 17, 2019 at 5:50 am


Visibility: N/A

Pressure: 29.74 "Hg

Humidity: 71%

Dew Point: 39 °F

Location of JørpelandLocation

Past Weather in Jørpeland — Graph

°F

Jørpeland Temperature Yesterday

Maximum temperature yesterday: 55 °F (at 11:50 am)
Minimum temperature yesterday: 48 °F (at 10:50 pm)
Average temperature yesterday: 52 °F

High & Low Weather Summary for the Past Weeks

 TemperatureHumidityPressure
High64 °F (Sep 9, 2:20 pm)100% (Sep 3, 3:50 am)30.39 "Hg (Sep 3, 3:50 am)
Low46 °F (Sep 7, 5:50 am)54% (Sep 5, 9:50 pm)29.56 "Hg (Sep 4, 2:50 pm)
Average55 °F79%29.92 "Hg
* Reported Sep 2 4:20 am — Sep 17 4:50 am, Jørpeland. Weather by CustomWeather, © 2019

Note: Actual official high and low records may vary slightly from our data, if they occured in-between our weather recording intervals... More about our weather records

Advertising

Jørpeland Weather History for the Previous 24 Hours

Scroll right to see more
 ConditionsComfort  
Time TempWeatherWind HumidityBarometerVisibility
4:50 am
Tue, Sep 17
48 °FPartly cloudy.28 mph71%29.74 "HgN/A
3:50 am48 °FRain. Partly cloudy.25 mph71%29.77 "Hg1 mi
2:50 am48 °FRain showers. Passing clouds.15 mph76%29.80 "HgN/A
1:50 am48 °FRain. Partly cloudy.18 mph71%29.80 "HgN/A
12:50 am46 °FPartly cloudy.12 mph76%29.83 "HgN/A
12:20 am48 °FRain showers. Partly cloudy.17 mph76%29.83 "HgN/A
11:50 pm
Mon, Sep 16
50 °FPartly cloudy.23 mph62%29.83 "HgN/A
11:20 pm50 °FPartly cloudy.22 mph67%29.83 "HgN/A
10:50 pm48 °FScattered showers. Partly cloudy.21 mph76%29.83 "HgN/A
10:20 pm50 °FOvercast.14 mph76%29.83 "HgN/A
9:50 pm50 °FSprinkles. Partly cloudy.24 mph71%29.83 "HgN/A
9:20 pm52 °FSprinkles. Partly cloudy.18 mph77%29.83 "HgN/A
8:50 pm54 °FScattered showers. Partly cloudy.23 mph67%29.83 "HgN/A
8:20 pm52 °FScattered showers. Partly cloudy.18 mph77%29.83 "HgN/A
7:50 pm54 °FSprinkles. Broken clouds.16 mph77%29.83 "HgN/A
7:20 pm54 °FScattered showers. Broken clouds.21 mph72%29.86 "HgN/A
6:50 pm54 °FSprinkles. Broken clouds.17 mph77%29.86 "HgN/A
6:20 pm54 °FScattered showers. Broken clouds.16 mph82%29.86 "HgN/A
5:50 pm54 °FBroken clouds.12 mph82%29.89 "HgN/A
5:20 pm55 °FScattered showers. Partly sunny.14 mph72%29.89 "HgN/A
4:50 pm54 °FScattered showers. Partly sunny.14 mph72%29.89 "HgN/A
4:20 pm54 °FScattered showers. Partly sunny.15 mph72%29.89 "HgN/A
3:50 pm52 °FSprinkles. Broken clouds.21 mph82%29.92 "HgN/A
3:20 pm55 °FSprinkles. Partly sunny.18 mph77%29.92 "HgN/A
2:50 pm54 °FSprinkles. Partly sunny.13 mph77%29.92 "HgN/A
2:20 pm52 °FLight rain. Partly sunny.10 mph77%29.92 "HgN/A
1:50 pm55 °FScattered showers. Partly sunny.13 mph63%29.92 "HgN/A
1:20 pm55 °FScattered clouds.15 mph63%29.92 "HgN/A
12:50 pm55 °FBroken clouds.14 mph67%29.92 "HgN/A
12:20 pm55 °FScattered clouds.17 mph59%29.92 "HgN/A
11:50 am55 °FBroken clouds.17 mph59%29.92 "HgN/A
11:20 am54 °FBroken clouds.10 mph72%29.92 "HgN/A
10:50 am54 °FScattered clouds.17 mph72%29.92 "HgN/A
10:20 am54 °FScattered showers. Scattered clouds.17 mph67%29.92 "HgN/A
9:50 am52 °FScattered showers. Broken clouds.18 mph72%29.92 "HgN/A
9:20 am52 °FLight rain. Partly sunny.15 mph72%29.92 "HgN/A
8:50 am52 °FScattered clouds.22 mph62%29.92 "HgN/A
8:20 am52 °FScattered clouds.23 mph62%29.92 "HgN/A
7:50 am52 °FScattered showers. Partly sunny.24 mph67%29.92 "HgN/A
7:20 am52 °FScattered showers. Scattered clouds.25 mph67%29.92 "HgN/A
6:50 am52 °FScattered showers. Passing clouds.24 mph67%29.89 "HgN/A
6:20 am52 °FScattered showers. Partly cloudy.21 mph72%29.89 "HgN/A
Weather by CustomWeather, © 2019

See weather overview